This demonstration page uses our WeatherBlox Daily Observations layout. Learn more.

38.89511, -77.03637

Hourly Observations for April 16, 2017

Temp ( °F °C ) Dew Point ( °F °C ) Humidity (%) Winds ( mph kmh ) Pressure ( in mb ) Visibility ( mi km ) Precip ( " mm )
12:52 am 00:52 Mostly Cloudy 69 20.6 61 16.1 76 76 SSW 3 6 30.09 1019 10 16.09344 0 0
1:52 am 01:52 Mostly Cloudy 68 20 61 16.1 78 78 S 9 15 30.09 1019 10 16.09344 0 0
2:52 am 02:52 Mostly Clear 66 18.9 60 15.6 81 81 S 8 13 30.06 1018 10 16.09344 0 0
3:52 am 03:52 Clear 66 18.9 60 15.6 81 81 S 8 13 30.06 1018 10 16.09344 0 0
4:52 am 04:52 Cloudy 66 18.9 60 15.6 81 81 S 8 13 30.06 1018 10 16.09344 0 0
5:52 am 05:52 Mostly Cloudy 67 19.4 60 15.6 79 79 S 8 13 30.06 1018 10 16.09344 0 0
6:52 am 06:52 Mostly Cloudy 66 18.9 59 15 78 78 SSW 8 13 30.06 1018 10 16.09344 0 0
7:52 am 07:52 Mostly Cloudy 68 20 60 15.6 76 76 S 7 11 30.06 1018 10 16.09344 0 0
8:52 am 08:52 Partly Cloudy 71 21.7 60 15.6 68 68 S 9 15 30.06 1018 10 16.09344 0 0
9:52 am 09:52 Partly Cloudy 74 23.3 60 15.6 62 62 S 12 19 30.06 1018 10 16.09344 0 0
10:52 am 10:52 Mostly Cloudy 76 24.4 60 15.6 58 58 S 15 24 30.03 1017 10 16.09344 0 0
11:52 am 11:52 Mostly Cloudy 85 29.4 54 12.2 35 35 SW 14 22 30.03 1017 10 16.09344 0 0
12:52 pm 12:52 Mostly Cloudy 86 30 53 11.7 32 32 W 15 24 29.97 1015 10 16.09344 0 0
1:52 pm 13:52 Mostly Cloudy 87 30.6 52 11.1 30 30 W 22 35 29.94 1014 10 16.09344 0 0
2:52 pm 14:52 Mostly Cloudy 88 31.1 50 10 27 27 W 18 30 29.94 1014 10 16.09344 0 0
3:52 pm 15:52 Mostly Cloudy 87 30.6 50 10 28 28 WSW 16 26 29.91 1013 10 16.09344 0 0
4:52 pm 16:52 Mostly Cloudy 87 30.6 50 10 28 28 WSW 18 30 29.88 1012 10 16.09344 0 0
5:52 pm 17:52 Mostly Cloudy 82 27.8 55 12.8 40 40 WSW 12 19 29.91 1013 10 16.09344 0.001 0.001
6:52 pm 18:52 Mostly Cloudy 82 27.8 53 11.7 37 37 WSW 15 24 29.91 1013 10 16.09344 0 0
7:52 pm 19:52 Mostly Cloudy 81 27.2 54 12.2 39 39 SW 14 22 29.91 1013 10 16.09344 0 0
8:52 pm 20:52 Mostly Cloudy 79 26.1 54 12.2 42 42 SW 12 19 29.91 1013 10 16.09344 0 0
9:52 pm 21:52 Mostly Cloudy 77 25 53 11.7 43 43 SW 9 15 29.94 1014 10 16.09344 0 0
10:52 pm 22:52 Mostly Cloudy 76 24.4 54 12.2 47 47 WSW 8 13 29.97 1015 10 16.09344 0 0
11:52 pm 23:52 Partly Cloudy 74 23.3 54 12.2 50 50 WSW 9 15 29.97 1015 10 16.09344 0 0

Powered by AerisWeather